| time (UTC) | temp C | wind direction | speed KPH | gust KPH | rain 1hr cm | rain 24hr cm | rain mn cm | humidity % | barometer mb |
| 20260505075533 | 17 | 144 | 1.6 | 3.2 | 0.00 | 0.00 | 0.00 | 72 | 1004.9 |
| 20260505075030 | 17 | 299 | 8.0 | 20.9 | 0.00 | 0.00 | 0.00 | 71 | 1004.7 |
| 20260505074527 | 17 | 230 | 1.6 | 3.2 | 0.00 | 0.00 | 0.00 | 72 | 1004.8 |
| 20260505074024 | 17 | 211 | 1.6 | 1.6 | 0.00 | 0.00 | 0.00 | 73 | 1004.8 |
| 20260505073522 | 17 | 140 | 1.6 | 8.0 | 0.00 | 0.00 | 0.00 | 72 | 1004.8 |
| 20260505073020 | 17 | 198 | 8.0 | 9.7 | 0.00 | 0.00 | 0.00 | 72 | 1004.4 |
| 20260505072515 | 17 | 219 | 6.4 | 14.5 | 0.00 | 0.00 | 0.00 | 71 | 1004.4 |
| 20260505072012 | 17 | 233 | 3.2 | 8.0 | 0.00 | 0.00 | 0.00 | 71 | 1004.4 |
| 20260505071507 | 17 | 119 | 3.2 | 4.8 | 0.00 | 0.00 | 0.00 | 71 | 1004.3 |
| 20260505071006 | 17 | 133 | 1.6 | 4.8 | 0.00 | 0.00 | 0.00 | 70 | 1004.5 |
| 20260505070503 | 17 | 288 | 1.6 | 8.0 | 0.00 | 0.00 | 0.00 | 71 | 1004.2 |
| 20260505065958 | 18 | 229 | 1.6 | 4.8 | 0.00 | 0.00 | 0.00 | 70 | 1004.1 |
| 20260505065455 | 17 | 205 | 4.8 | 4.8 | 0.00 | 0.00 | 0.00 | 71 | 1004.4 |
| 20260505064951 | 17 | 215 | 4.8 | 4.8 | 0.00 | 0.00 | 0.00 | 71 | 1004.3 |
| 20260505064448 | 17 | 214 | 6.4 | 8.0 | 0.00 | 0.00 | 0.00 | 71 | 1004.0 |
| 20260505063947 | 17 | 157 | 1.6 | 4.8 | 0.00 | 0.00 | 0.00 | 71 | 1004.2 |
| 20260505063443 | 18 | 178 | 1.6 | 1.6 | 0.00 | 0.00 | 0.00 | 71 | 1004.3 |
| 20260505062939 | 18 | 128 | 6.4 | 9.7 | 0.00 | 0.00 | 0.00 | 70 | 1004.3 |
| 20260505062437 | 18 | 121 | 0.0 | 3.2 | 0.00 | 0.00 | 0.00 | 70 | 1004.5 |
| 20260505061933 | 18 | 113 | 3.2 | 8.0 | 0.00 | 0.00 | 0.00 | 70 | 1004.5 |
| 20260505061432 | 18 | 272 | 4.8 | 12.9 | 0.00 | 0.00 | 0.00 | 70 | 1004.6 |
| 20260505060929 | 18 | 251 | 1.6 | 3.2 | 0.00 | 0.00 | 0.00 | 70 | 1004.7 |
| 20260505060426 | 18 | 208 | 4.8 | 4.8 | 0.00 | 0.00 | 0.00 | 69 | 1004.7 |
| 20260505055922 | 18 | 254 | 3.2 | 3.2 | 0.00 | 0.00 | 0.00 | 70 | 1004.8 |
| 20260505055418 | 18 | 220 | 3.2 | 4.8 | 0.00 | 0.00 | 0.00 | 71 | 1004.9 |
| 20260505054915 | 17 | 229 | 3.2 | 4.8 | 0.00 | 0.00 | 0.00 | 72 | 1004.9 |
| 20260505054412 | 18 | 281 | 3.2 | 4.8 | 0.00 | 0.00 | 0.00 | 71 | 1005.0 |
| 20260505053910 | 18 | 240 | 1.6 | 8.0 | 0.00 | 0.00 | 0.00 | 74 | 1005.1 |
| 20260505053407 | 18 | 124 | 0.0 | 3.2 | 0.00 | 0.00 | 0.00 | 71 | 1005.1 |
| 20260505052904 | 18 | 127 | 3.2 | 11.3 | 0.00 | 0.00 | 0.00 | 70 | 1005.2 |
| 20260505052401 | 18 | 216 | 4.8 | 4.8 | 0.00 | 0.00 | 0.00 | 71 | 1005.2 |
| 20260505051858 | 17 | 205 | 1.6 | 9.7 | 0.00 | 0.00 | 0.00 | 73 | 1005.3 |
| 20260505051355 | 18 | 244 | 3.2 | 3.2 | 0.00 | 0.00 | 0.00 | 72 | 1005.4 |
| 20260505050853 | 17 | 130 | 1.6 | 3.2 | 0.00 | 0.00 | 0.00 | 73 | 1005.3 |
| 20260505050351 | 17 | 191 | 1.6 | 3.2 | 0.00 | 0.00 | 0.00 | 75 | 1005.2 |
| 20260505041319 | 16 | 199 | 1.6 | 3.2 | 0.00 | 0.00 | 0.00 | 79 | 1005.2 |
| 20260505040816 | 16 | 182 | 0.0 | 1.6 | 0.00 | 0.00 | 0.00 | 79 | 1005.2 |
| 20260505040313 | 17 | 145 | 0.0 | 0.0 | 0.00 | 0.00 | 0.00 | 79 | 1005.3 |
| 20260505035810 | 17 | 142 | 0.0 | 1.6 | 0.00 | 0.00 | 0.00 | 73 | 1005.2 |
| 20260505035305 | 17 | 198 | 1.6 | 1.6 | 0.00 | 0.00 | 0.00 | 74 | 1005.1 |
| 20260505034803 | 17 | 266 | 6.4 | 8.0 | 0.00 | 0.00 | 0.00 | 75 | 1005.2 |
| 20260505034300 | 17 | 126 | 3.2 | 4.8 | 0.00 | 0.00 | 0.00 | 74 | 1005.3 |
| 20260505033756 | 18 | 94 | 3.2 | 3.2 | 0.00 | 0.00 | 0.00 | 71 | 1005.2 |
| 20260505033254 | 18 | 162 | 1.6 | 8.0 | 0.00 | 0.00 | 0.00 | 72 | 1005.3 |
| 20260505032752 | 18 | 234 | 1.6 | 8.0 | 0.00 | 0.00 | 0.00 | 72 | 1005.3 |
| 20260505032247 | 18 | 119 | 0.0 | 3.2 | 0.00 | 0.00 | 0.00 | 72 | 1005.3 |
| 20260505031745 | 18 | 87 | 1.6 | 3.2 | 0.00 | 0.00 | 0.00 | 72 | 1005.2 |
| 20260505031241 | 18 | 97 | 1.6 | 4.8 | 0.00 | 0.00 | 0.00 | 71 | 1005.3 |
| 20260505030738 | 18 | 197 | 0.0 | 9.7 | 0.00 | 0.00 | 0.00 | 71 | 1005.2 |
| 20260505030234 | 17 | 255 | 4.8 | 8.0 | 0.00 | 0.00 | 0.00 | 72 | 1005.3 |
| 20260505025730 | 17 | 83 | 8.0 | 9.7 | 0.00 | 0.00 | 0.00 | 73 | 1005.2 |
| 20260505025229 | 18 | 204 | 6.4 | 16.1 | 0.00 | 0.00 | 0.00 | 71 | 1005.3 |
| 20260505024726 | 17 | 218 | 4.8 | 8.0 | 0.00 | 0.00 | 0.00 | 72 | 1005.2 |
| 20260505024223 | 17 | 260 | 4.8 | 8.0 | 0.00 | 0.00 | 0.00 | 71 | 1005.1 |
| 20260505023721 | 17 | 46 | 3.2 | 9.7 | 0.00 | 0.00 | 0.00 | 72 | 1005.2 |
| 20260505023218 | 17 | 251 | 3.2 | 3.2 | 0.00 | 0.00 | 0.00 | 71 | 1005.1 |
| 20260505022715 | 17 | 295 | 4.8 | 9.7 | 0.00 | 0.00 | 0.00 | 71 | 1005.4 |
| 20260505022212 | 17 | 173 | 6.4 | 8.0 | 0.00 | 0.00 | 0.00 | 72 | 1005.4 |
| 20260505021709 | 17 | 114 | 3.2 | 4.8 | 0.00 | 0.00 | 0.00 | 73 | 1005.2 |
| 20260505021206 | 17 | 120 | 0.0 | 8.0 | 0.00 | 0.00 | 0.00 | 72 | 1005.2 |
| 20260505020701 | 17 | 219 | 3.2 | 4.8 | 0.00 | 0.00 | 0.00 | 75 | 1005.4 |
| 20260505020157 | 17 | 87 | 1.6 | 8.0 | 0.00 | 0.00 | 0.00 | 71 | 1005.1 |
| 20260505015655 | 17 | 127 | 1.6 | 3.2 | 0.00 | 0.00 | 0.00 | 71 | 1005.3 |
| 20260505015151 | 17 | 143 | 6.4 | 8.0 | 0.00 | 0.00 | 0.00 | 74 | 1005.1 |
| 20260505014648 | 17 | 214 | 4.8 | 4.8 | 0.00 | 0.00 | 0.00 | 71 | 1005.1 |
| 20260505014145 | 17 | 264 | 3.2 | 8.0 | 0.00 | 0.00 | 0.00 | 71 | 1005.2 |
| 20260505013642 | 17 | 252 | 4.8 | 4.8 | 0.00 | 0.00 | 0.00 | 74 | 1005.3 |
| 20260505013139 | 16 | 217 | 4.8 | 8.0 | 0.00 | 0.00 | 0.00 | 74 | 1005.0 |
| 20260505012638 | 16 | 125 | 3.2 | 3.2 | 0.00 | 0.00 | 0.00 | 73 | 1005.0 |
| 20260505012134 | 17 | 167 | 1.6 | 1.6 | 0.00 | 0.00 | 0.00 | 75 | 1005.0 |
| 20260505011630 | 17 | 314 | 4.8 | 8.0 | 0.00 | 0.00 | 0.00 | 73 | 1004.8 |
| 20260505011127 | 16 | 8 | 4.8 | 4.8 | 0.00 | 0.00 | 0.00 | 74 | 1004.8 |
| 20260505010622 | 17 | 243 | 1.6 | 3.2 | 0.00 | 0.00 | 0.00 | 73 | 1004.9 |
| 20260505010119 | 17 | 164 | 0.0 | 3.2 | 0.00 | 0.00 | 0.00 | 74 | 1004.7 |
| 20260505005615 | 18 | 144 | 1.6 | 3.2 | 0.00 | 0.00 | 0.00 | 69 | 1004.9 |
| 20260505005113 | 18 | 181 | 1.6 | 3.2 | 0.00 | 0.00 | 0.00 | 67 | 1004.9 |
| 20260505004609 | 18 | 185 | 1.6 | 4.8 | 0.00 | 0.00 | 0.00 | 69 | 1004.7 |
| 20260505004106 | 18 | 191 | 1.6 | 4.8 | 0.00 | 0.00 | 0.00 | 67 | 1004.9 |
| 20260505003604 | 18 | 111 | 3.2 | 3.2 | 0.00 | 0.00 | 0.00 | 68 | 1004.8 |
| 20260505003101 | 18 | 76 | 1.6 | 3.2 | 0.00 | 0.00 | 0.00 | 67 | 1004.7 |
| 20260505002556 | 19 | 228 | 3.2 | 8.0 | 0.00 | 0.00 | 0.00 | 66 | 1004.5 |
| 20260505002055 | 19 | 72 | 0.0 | 1.6 | 0.00 | 0.00 | 0.00 | 65 | 1004.9 |
| 20260505001552 | 20 | 262 | 3.2 | 4.8 | 0.00 | 0.00 | 0.00 | 64 | 1004.6 |
| 20260505001049 | 20 | 152 | 3.2 | 8.0 | 0.00 | 0.00 | 0.00 | 64 | 1004.7 |
| 20260505000546 | 20 | 205 | 4.8 | 11.3 | 0.00 | 0.00 | 0.00 | 63 | 1004.5 |
| 20260505000044 | 20 | 234 | 1.6 | 3.2 | 0.00 | 0.00 | 0.00 | 63 | 1004.8 |
| 20260504235540 | 20 | 110 | 1.6 | 4.8 | 0.00 | 0.00 | 0.00 | 62 | 1004.6 |
| 20260504235037 | 20 | 220 | 4.8 | 8.0 | 0.00 | 0.00 | 0.00 | 63 | 1004.6 |
| 20260504234534 | 20 | 120 | 3.2 | 4.8 | 0.00 | 0.00 | 0.00 | 62 | 1004.9 |
| 20260504234031 | 20 | 23 | 4.8 | 11.3 | 0.00 | 0.00 | 0.00 | 61 | 1005.1 |
| 20260504233526 | 20 | 104 | 0.0 | 4.8 | 0.00 | 0.00 | 0.00 | 61 | 1004.9 |
| 20260504233024 | 20 | 191 | 3.2 | 4.8 | 0.00 | 0.00 | 0.00 | 61 | 1005.0 |
| 20260504232521 | 20 | 221 | 6.4 | 9.7 | 0.00 | 0.00 | 0.00 | 61 | 1004.9 |
| 20260504232018 | 20 | 55 | 1.6 | 14.5 | 0.00 | 0.00 | 0.00 | 60 | 1005.0 |
| 20260504231515 | 21 | 288 | 6.4 | 12.9 | 0.00 | 0.00 | 0.00 | 60 | 1004.9 |
| 20260504231011 | 21 | 134 | 4.8 | 12.9 | 0.00 | 0.00 | 0.00 | 59 | 1005.3 |
| 20260504230507 | 21 | 142 | 1.6 | 3.2 | 0.00 | 0.00 | 0.00 | 59 | 1005.0 |
| 20260504230006 | 21 | 247 | 11.3 | 17.7 | 0.00 | 0.00 | 0.00 | 58 | 1005.1 |
| 20260504225503 | 22 | 67 | 11.3 | 17.7 | 0.00 | 0.00 | 0.00 | 57 | 1005.1 |
| 20260504225000 | 21 | 293 | 9.7 | 12.9 | 0.00 | 0.00 | 0.00 | 59 | 1005.2 |
| 20260504224456 | 21 | 266 | 11.3 | 14.5 | 0.00 | 0.00 | 0.00 | 59 | 1005.3 |
| 20260504223953 | 21 | 220 | 1.6 | 9.7 | 0.00 | 0.00 | 0.00 | 59 | 1005.2 |
| 20260504223450 | 21 | 184 | 3.2 | 24.1 | 0.00 | 0.00 | 0.00 | 59 | 1004.8 |
| 20260504222945 | 21 | 231 | 1.6 | 14.5 | 0.00 | 0.00 | 0.00 | 59 | 1005.2 |
| 20260504222443 | 22 | 303 | 4.8 | 8.0 | 0.00 | 0.00 | 0.00 | 59 | 1005.0 |
| 20260504221940 | 22 | 220 | 3.2 | 12.9 | 0.00 | 0.00 | 0.00 | 59 | 1005.1 |
| 20260504221437 | 22 | 236 | 3.2 | 8.0 | 0.00 | 0.00 | 0.00 | 58 | 1004.9 |
| 20260504220934 | 22 | 272 | 3.2 | 8.0 | 0.00 | 0.00 | 0.00 | 58 | 1005.0 |
| 20260504220431 | 21 | 211 | 1.6 | 14.5 | 0.00 | 0.00 | 0.00 | 60 | 1004.9 |
| 20260504215928 | 21 | 227 | 6.4 | 14.5 | 0.00 | 0.00 | 0.00 | 60 | 1004.8 |
| 20260504215425 | 21 | 167 | 1.6 | 9.7 | 0.00 | 0.00 | 0.00 | 59 | 1005.1 |
| 20260504214921 | 22 | 147 | 3.2 | 11.3 | 0.00 | 0.00 | 0.00 | 59 | 1005.0 |
| 20260504214418 | 21 | 339 | 4.8 | 22.5 | 0.00 | 0.00 | 0.00 | 58 | 1005.0 |
| 20260504213915 | 21 | 279 | 9.7 | 14.5 | 0.00 | 0.00 | 0.00 | 59 | 1005.3 |
| 20260504213410 | 21 | 126 | 3.2 | 27.4 | 0.00 | 0.00 | 0.00 | 58 | 1005.3 |
| 20260504212908 | 21 | 238 | 3.2 | 9.7 | 0.00 | 0.00 | 0.00 | 58 | 1005.3 |
| 20260504212404 | 22 | 237 | 6.4 | 22.5 | 0.00 | 0.00 | 0.00 | 58 | 1005.4 |
| 20260504211902 | 23 | 190 | 9.7 | 17.7 | 0.00 | 0.00 | 0.00 | 56 | 1005.1 |
| 20260504211358 | 22 | 198 | 6.4 | 9.7 | 0.00 | 0.00 | 0.00 | 57 | 1005.2 |
| 20260504210855 | 22 | 277 | 8.0 | 22.5 | 0.00 | 0.00 | 0.00 | 55 | 1005.4 |
| 20260504210352 | 22 | 102 | 8.0 | 17.7 | 0.00 | 0.00 | 0.00 | 55 | 1005.4 |
| 20260504205849 | 22 | 243 | 17.7 | 22.5 | 0.00 | 0.00 | 0.00 | 56 | 1005.5 |
| 20260504205347 | 23 | 262 | 11.3 | 14.5 | 0.00 | 0.00 | 0.00 | 55 | 1005.3 |
| 20260504204845 | 23 | 251 | 8.0 | 12.9 | 0.00 | 0.00 | 0.00 | 56 | 1005.2 |
| 20260504204343 | 23 | 232 | 6.4 | 11.3 | 0.00 | 0.00 | 0.00 | 58 | 1005.0 |
| 20260504203842 | 23 | 239 | 4.8 | 11.3 | 0.00 | 0.00 | 0.00 | 56 | 1005.2 |
| 20260504203339 | 22 | 105 | 6.4 | 11.3 | 0.00 | 0.00 | 0.00 | 56 | 1005.1 |
| 20260504202834 | 22 | 171 | 0.0 | 9.7 | 0.00 | 0.00 | 0.00 | 58 | 1005.4 |
| 20260504202332 | 22 | 250 | 6.4 | 17.7 | 0.00 | 0.00 | 0.00 | 57 | 1005.3 |
| 20260504201828 | 22 | 231 | 4.8 | 17.7 | 0.00 | 0.00 | 0.00 | 56 | 1005.1 |
| 20260504201326 | 22 | 231 | 3.2 | 4.8 | 0.00 | 0.00 | 0.00 | 55 | 1005.1 |
| 20260504200823 | 22 | 283 | 4.8 | 17.7 | 0.00 | 0.00 | 0.00 | 57 | 1005.2 |
| 20260504200319 | 22 | 279 | 9.7 | 20.9 | 0.00 | 0.00 | 0.00 | 56 | 1005.3 |
| 20260504195815 | 22 | 240 | 6.4 | 11.3 | 0.00 | 0.00 | 0.00 | 55 | 1005.3 |
| 20260504195311 | 22 | 245 | 4.8 | 14.5 | 0.00 | 0.00 | 0.00 | 57 | 1005.5 |
| 20260504194809 | 22 | 1 | 4.8 | 17.7 | 0.00 | 0.00 | 0.00 | 56 | 1005.4 |
| 20260504194305 | 22 | 240 | 9.7 | 12.9 | 0.00 | 0.00 | 0.00 | 60 | 1005.3 |
| 20260504193801 | 21 | 220 | 4.8 | 16.1 | 0.00 | 0.00 | 0.00 | 58 | 1005.3 |
| 20260504193258 | 21 | 235 | 3.2 | 8.0 | 0.00 | 0.00 | 0.00 | 58 | 1005.3 |
| 20260504192757 | 22 | 233 | 4.8 | 9.7 | 0.00 | 0.00 | 0.00 | 57 | 1005.3 |
| 20260504192254 | 22 | 198 | 1.6 | 9.7 | 0.00 | 0.00 | 0.00 | 58 | 1005.6 |
| 20260504191753 | 22 | 216 | 6.4 | 16.1 | 0.00 | 0.00 | 0.00 | 56 | 1005.5 |
| 20260504191250 | 22 | 129 | 11.3 | 17.7 | 0.00 | 0.00 | 0.00 | 54 | 1005.9 |
| 20260504190745 | 22 | 222 | 14.5 | 29.0 | 0.00 | 0.00 | 0.00 | 57 | 1005.7 |
| 20260504190242 | 23 | 280 | 9.7 | 20.9 | 0.00 | 0.00 | 0.00 | 57 | 1005.9 |
| 20260504185738 | 22 | 215 | 4.8 | 11.3 | 0.00 | 0.00 | 0.00 | 58 | 1005.7 |
| 20260504185235 | 22 | 271 | 11.3 | 25.7 | 0.00 | 0.00 | 0.00 | 58 | 1005.9 |
| 20260504184731 | 22 | 231 | 6.4 | 14.5 | 0.00 | 0.00 | 0.00 | 60 | 1006.4 |
| 20260504184227 | 22 | 244 | 8.0 | 16.1 | 0.00 | 0.00 | 0.00 | 58 | 1005.9 |
| 20260504183723 | 22 | 255 | 4.8 | 4.8 | 0.00 | 0.00 | 0.00 | 59 | 1006.0 |
| 20260504183220 | 22 | 281 | 11.3 | 14.5 | 0.00 | 0.00 | 0.00 | 58 | 1006.1 |
| 20260504182718 | 22 | 252 | 3.2 | 12.9 | 0.00 | 0.00 | 0.00 | 57 | 1006.1 |
| 20260504182215 | 22 | 86 | 4.8 | 8.0 | 0.00 | 0.00 | 0.00 | 57 | 1006.0 |
| 20260504181713 | 22 | 213 | 11.3 | 14.5 | 0.00 | 0.00 | 0.00 | 60 | 1006.1 |
| 20260504181210 | 22 | 238 | 1.6 | 9.7 | 0.00 | 0.00 | 0.00 | 59 | 1006.1 |
| 20260504180709 | 22 | 247 | 0.0 | 12.9 | 0.00 | 0.00 | 0.00 | 59 | 1006.1 |
| 20260504180207 | 22 | 205 | 4.8 | 8.0 | 0.00 | 0.00 | 0.00 | 57 | 1006.1 |
| 20260504175704 | 21 | 123 | 6.4 | 11.3 | 0.00 | 0.00 | 0.00 | 58 | 1006.3 |
| 20260504175201 | 21 | 254 | 4.8 | 4.8 | 0.00 | 0.00 | 0.00 | 59 | 1006.4 |
| 20260504174659 | 21 | 131 | 6.4 | 8.0 | 0.00 | 0.00 | 0.00 | 58 | 1006.7 |
| 20260504174156 | 21 | 243 | 8.0 | 20.9 | 0.00 | 0.00 | 0.00 | 62 | 1006.4 |
| 20260504173653 | 21 | 30 | 3.2 | 11.3 | 0.00 | 0.00 | 0.00 | 62 | 1006.6 |
| 20260504173150 | 21 | 100 | 4.8 | 9.7 | 0.00 | 0.00 | 0.00 | 57 | 1006.5 |
| 20260504172646 | 21 | 307 | 14.5 | 22.5 | 0.00 | 0.00 | 0.00 | 60 | 1006.9 |
| 20260504172143 | 21 | 255 | 3.2 | 11.3 | 0.00 | 0.00 | 0.00 | 62 | 1006.8 |
| 20260504171639 | 20 | 242 | 6.4 | 9.7 | 0.00 | 0.00 | 0.00 | 59 | 1006.7 |
| 20260504171137 | 20 | 113 | 3.2 | 11.3 | 0.00 | 0.00 | 0.00 | 60 | 1006.8 |
| 20260504170633 | 21 | 208 | 8.0 | 11.3 | 0.00 | 0.00 | 0.00 | 60 | 1006.9 |
| 20260504170131 | 20 | 120 | 4.8 | 9.7 | 0.00 | 0.00 | 0.00 | 61 | 1006.8 |
| 20260504151016 | 18 | 11 | 4.8 | 9.7 | 0.00 | 0.00 | 0.00 | 62 | 1007.9 |
| 20260504150514 | 17 | 214 | 3.2 | 11.3 | 0.00 | 0.00 | 0.00 | 63 | 1008.0 |
| 20260504140939 | 16 | 261 | 11.3 | 17.7 | 0.00 | 0.00 | 0.00 | 61 | 1008.6 |
| 20260504140436 | 16 | 291 | 11.3 | 12.9 | 0.00 | 0.00 | 0.00 | 61 | 1008.6 |
| 20260504130401 | 13 | 257 | 8.0 | 12.9 | 0.00 | 0.00 | 0.00 | 66 | 1009.1 |
| 20260504110248 | 7 | 125 | 0.0 | 1.6 | 0.00 | 0.00 | 0.00 | 79 | 1009.2 |
| 20260504100206 | 8 | 135 | 0.0 | 3.2 | 0.00 | 0.00 | 0.00 | 74 | 1009.1 |
| 20260504090128 | 8 | 200 | 1.6 | 3.2 | 0.00 | 0.00 | 0.00 | 76 | 1009.9 |
| 20260504081558 | 10 | 128 | 0.0 | 1.6 | 0.00 | 0.00 | 0.00 | 72 | 1010.2 |
| 20260504081054 | 11 | 136 | 1.6 | 3.2 | 0.00 | 0.00 | 0.00 | 66 | 1010.1 |
| 20260504080551 | 11 | 169 | 0.0 | 4.8 | 0.00 | 0.00 | 0.00 | 65 | 1010.2 |